Weather Roundup
Issued by NWS Chicago, IL

Home | Current Version | Previous Version | Graphics & Text | Print | Product List | Glossary On
Versions: 1 2 3 4 5 6 7 8 9 10 11 12 13 14 15 16 17 18 19 20 21 22 23 24 25 26 27 28 29 30 31 32 33 34 35 36 37 38 39 40 41 42 43 44 45 46 47 48 49 50
000
NZUS59 KLOT 220000
HRRLOT

CHICAGO AREA WEATHER ROUNDUP
NATIONAL WEATHER SERVICE CHICAGO/ROMEOVILLE IL
700 PM CDT THU AUG 21 2014

NOTE: "FAIR" INDICATES FEW OR NO CLOUDS BELOW 12,000 FEET WITH NO
SIGNIFICANT WEATHER AND/OR OBSTRUCTIONS TO VISIBILITY.

* THESE STATIONS ARE NOT UNDER NWS QUALITY CONTROL. THEY ALSO MAY NOT
  REPORT WEATHER SUCH AS PRECIPITATION OR FOG.

ILZ005-006-012>014-019>023-220100-
NORTHEAST ILLINOIS

CITY           SKY/WX    TMP DP  RH WIND       PRES   REMARKS
OHARE          MOCLDY    76  70  82 SE10      29.90S
6HR MIN TEMP:  74; 6HR MAX TEMP:  79; 6HR PCP:  0.63;

MIDWAY         MOCLDY    78  74  87 SE8       29.90S HX  81
6HR MIN TEMP:  77; 6HR MAX TEMP:  83; 6HR PCP:  0.69;

AURORA         MOCLDY    77  73  87 CALM      29.91R FOG
6HR MIN TEMP:  76; 6HR MAX TEMP:  82; 6HR PCP:  0.30;

WAUKEGAN       CLOUDY    73  71  93 SE8       29.90S FOG
6HR MIN TEMP:  72; 6HR MAX TEMP:  74; 6HR PCP:  0.28;

DUPAGE AIRPORT PTCLDY    77  74  90 S6        29.90S
6HR MIN TEMP:  75; 6HR MAX TEMP:  81; 6HR PCP:  0.17;

WHEELING       PTCLDY    77  73  87 SE7       29.91S
6HR MIN TEMP:  74; 6HR MAX TEMP:  78; 6HR PCP:  0.38;

NORTHERLY IS     N/A     73  71  93 S7          N/A
$$

WIZ051-052-058>065-066-070>072-220100-
SOUTHEAST WISCONSIN

CITY           SKY/WX    TMP DP  RH WIND       PRES   REMARKS
MILWAUKEE      MOCLDY    74  69  85 SE6       29.92R
6HR MIN TEMP:  70; 6HR MAX TEMP:  77; 6HR PCP:  0.42;

KENOSHA*       PTCLDY    73  71  93 SE8       29.92S
RACINE*        PTCLDY    73  69  87 S6        29.93S
WAUKESHA       MOCLDY    73  68  83 SE5       29.93S
$$

INZ001>003-010>013-019-020-220100-
NORTHWEST INDIANA

CITY           SKY/WX    TMP DP  RH WIND       PRES   REMARKS
GARY*          MOCLDY    75  72  88 SE7       29.91F
MICHIGAN CITY* NOT AVBL
RENSSELAER*    NOT AVBL
VALPARAISO     CLOUDY    73  73 100 E7        29.93F
$$

LMZ740>746-220100-
SOUTHERN LAKE MICHIGAN

STATION/POSITION TIME  SKY/WX   TEMP WIND        PRES    VSBY
                                AIR  DIR/SP/G
                 (UTC)          (F)  (DEG/KT/KT) (MB)    (MI)
HARRISON CRIB    2300            72  140/ 13/ 16   N/A
BURNHAM HARBOR   0000            73  150/  6/ 10   N/A
CALUMET HARBOR   2300            74  110/  8/ 10 1011.4F
BURNS HARBOR     0000            76  140/  6/  9   N/A
MICHIGAN CITY    2300            74  120/  9/ 11   N/A
$$

ABBREVIATIONS USED IN REMARKS
   TC - TEMPERATURE IN CELSIUS
  WCI - WIND CHILL INDEX
   HX - HEAT INDEX
  VSB - VISIBILITY
$$



USA.gov is the U.S. government's official web portal to all federal, state and local government web resources and services.